User: anonymous   Login
Location: Azul
(36.7830°S, 59.8500°W)
Time: 02:25:55
(UTC-03:00)
Language:

AO-92 - Orbit

View from above orbital plane
View from above orbital plane
View from above satellite
View from above satellite

Ground track
Ground track

The orbit data is extracted from the following two-line orbital elements,

1 43137U 18004AC  21295.45340828  .00002633  00000-0  10556-3 0  9998
2 43137  97.3964   8.1549 0010092 119.2140 241.0109 15.25857191210021
Epoch (UTC): 22 October 2021 10:52:54
Eccentricity: 0.0010092
inclination: 97.3964°
perigee height: 481 km
apogee height: 495 km
right ascension of ascending node: 8.1549°
argument of perigee: 119.2140°
revolutions per day: 15.25857191
mean anomaly at epoch: 241.0109°
orbit number at epoch: 21002

The dashed part of the orbit path shows where the satellite is in the earth's shadow,  

DLR